{"data":{"norad_id":82272,"epoch":"2026-08-18T22:11:25.768320Z","epoch_age_seconds":2828954,"freshness":"OLD","line1":"1 82272U          26230.92460380 -.00000184  00000+0 -41663-3 0  9993","line2":"2 82272  67.5251 109.3513 0756151 306.4770  46.8811 12.33702423302676","mean_motion":12.33702423,"eccentricity":0.0756151,"inclination_deg":67.5251,"raan_deg":109.3513,"arg_perigee_deg":306.477,"mean_anomaly_deg":46.8811,"bstar":-0.00041663,"rev_number":30267,"period_min":116.72182636217,"perigee_km":935.18011559533,"apogee_km":2131.6453651412,"semimajor_km":7911.5497403682,"source":"CELESTRAK","updated_at":"2026-09-17T09:00:30.253078Z"}}